Weather History for KCOD - December, 2012

Change the Weather History Date:

Friday, December 28, 2012

  Actual Average Record
Temperature  
Mean Temperature 18 °F -  
Max Temperature 30 °F 32 °F 59 °F (1947)
Min Temperature 5 °F 9 °F -16 °F (1990)
Degree Days  
Heating Degree Days 48    
Moisture  
Dew Point 9 °F    
Average Humidity 82    
Maximum Humidity 100    
Minimum Humidity 44    
Precipitation  
Precipitation 0.00 in - - ()
Sea Level Pressure  
Sea Level Pressure 29.93 in    
Wind  
Wind Speed 3 mph (NNW)    
Max Wind Speed 17 mph    
Max Gust Speed 25 mph    
Visibility 9 miles    
Events      
Averages and records for this station are not official NWS values.
T = Trace of Precipitation, MM = Missing Value Source: NWS Daily Summary

Daily Weather History Graph

Daily Weather History Graph

Search for Another Location

Airport or City:

Trip Planner

Search our weather history database for the weather conditions in past years. The results will help you decide how hot, cold, wet, or windy it might be!

Date:

Astronomy

Dec. 28, 2012 Rise Set
Actual Time 7:52 AM MST 4:43 PM MST
Civil Twilight 7:18 AM MST 5:17 PM MST
Nautical Twilight 6:41 AM MST 5:54 PM MST
Astronomical Twilight 6:06 AM MST 6:29 PM MST
Moon 5:26 PM MST (12/28) 7:46 AM MST (12/28)
Length of Visible Light 9h 58m
Length of Day
8h 51m
Full, 100% of the Moon is Illuminated
Dec 28
Full
Jan 4
Last Quarter
Jan 11
New
Jan 18
First Quarter
Jan 26
Full

Hourly Weather History & Observations

Time (MST) Temp. Windchill Dew Point Humidity Pressure Visibility Wind Dir Wind Speed Gust Speed Precip Events Conditions
12:15 AM 10.4 °F - 8.6 °F 92% 29.87 in 10.0 mi Calm Calm - N/A   Overcast
12:35 AM 10.4 °F - 10.4 °F 100% 29.87 in 10.0 mi Calm Calm - N/A   Scattered Clouds
12:55 AM 8.6 °F - 8.6 °F 100% 29.87 in 10.0 mi Calm Calm - N/A   Scattered Clouds
1:15 AM 12.2 °F - 8.6 °F 85% 29.87 in 10.0 mi Calm Calm - N/A   Partly Cloudy
1:35 AM 8.6 °F -1.3 °F 6.8 °F 92% 29.87 in 10.0 mi South 5.8 mph - N/A   Clear
1:55 AM 6.8 °F -4.8 °F 5.0 °F 92% 29.87 in 10.0 mi SSE 6.9 mph - N/A   Clear
2:15 AM 8.6 °F -2.6 °F 5.0 °F 85% 29.87 in 10.0 mi SSE 6.9 mph - N/A   Clear
2:35 AM 8.6 °F -2.6 °F 5.0 °F 85% 29.88 in 10.0 mi South 6.9 mph - N/A   Clear
2:55 AM 5.0 °F - 5.0 °F 100% 29.88 in 10.0 mi Calm Calm - N/A   Clear
3:15 AM 8.6 °F 0.1 °F 8.6 °F 100% 29.88 in 10.0 mi North 4.6 mph - N/A   Scattered Clouds
3:35 AM 5.0 °F -2.1 °F 3.2 °F 92% 29.88 in 10.0 mi North 3.5 mph - N/A   Mostly Cloudy
3:55 AM 6.8 °F - 6.8 °F 100% 29.88 in 10.0 mi Calm Calm - N/A   Mostly Cloudy
4:15 AM 6.8 °F - 6.8 °F 100% 29.88 in 10.0 mi Calm Calm - N/A   Mostly Cloudy
4:35 AM 5.0 °F -2.1 °F 3.2 °F 92% 29.87 in 10.0 mi SSW 3.5 mph - N/A   Overcast
4:55 AM 6.8 °F - 5.0 °F 92% 29.88 in 10.0 mi Calm Calm - N/A   Overcast
5:35 AM 6.8 °F - 3.2 °F 85% 29.88 in 10.0 mi Calm Calm - N/A   Overcast
5:55 AM 6.8 °F - 6.8 °F 100% 29.88 in 10.0 mi Calm Calm - N/A   Overcast
6:35 AM 6.8 °F - 5.0 °F 92% 29.89 in 10.0 mi Calm Calm - N/A   Overcast
6:55 AM 8.6 °F 0.1 °F 6.8 °F 92% 29.89 in 10.0 mi South 4.6 mph - N/A   Overcast
7:15 AM 8.6 °F - 6.8 °F 92% 29.89 in 10.0 mi Calm Calm - N/A   Overcast
7:35 AM 8.6 °F -3.7 °F 8.6 °F 100% 29.90 in 10.0 mi NE 8.1 mph - N/A   Overcast
7:55 AM 8.6 °F -2.6 °F 6.8 °F 92% 29.90 in 10.0 mi NNE 6.9 mph - N/A   Scattered Clouds
8:15 AM 8.6 °F -2.6 °F 6.8 °F 92% 29.91 in 10.0 mi ENE 6.9 mph - N/A   Clear
8:35 AM 6.8 °F -2.0 °F 3.2 °F 85% 29.91 in 6.0 mi ENE 4.6 mph - N/A   Partly Cloudy
8:55 AM 6.8 °F - 6.8 °F 100% 29.93 in 4.0 mi Calm Calm - N/A   Mostly Cloudy
9:15 AM 6.8 °F - 5.0 °F 92% 29.93 in 0.2 mi Calm Calm - N/A   Overcast
9:35 AM 8.6 °F - 6.8 °F 92% 29.94 in 1.0 mi Calm Calm - N/A   Overcast
9:55 AM 8.6 °F - 6.8 °F 92% 29.95 in 0.2 mi Calm Calm - N/A   Overcast
10:15 AM 8.6 °F - 8.6 °F 100% 29.96 in 0.5 mi Calm Calm - N/A   Overcast
10:35 AM 8.6 °F - 8.6 °F 100% 29.96 in 2.5 mi Calm Calm - N/A   Mostly Cloudy
10:55 AM 10.4 °F - 10.4 °F 100% 29.96 in 9.0 mi Calm Calm - N/A   Clear
11:15 AM 12.2 °F - 10.4 °F 92% 29.95 in 5.0 mi Calm Calm - N/A   Scattered Clouds
11:35 AM 15.8 °F - 14.0 °F 93% 29.95 in 10.0 mi Calm Calm - N/A   Partly Cloudy
11:55 AM 14.0 °F - 12.2 °F 93% 29.94 in 10.0 mi Calm Calm - N/A   Clear
12:15 PM 17.6 °F - 15.8 °F 93% 29.93 in 10.0 mi Calm Calm - N/A   Partly Cloudy
12:35 PM 19.4 °F 12.8 °F 17.6 °F 93% 29.92 in 10.0 mi ESE 4.6 mph - N/A   Partly Cloudy
12:55 PM 21.2 °F - 15.8 °F 80% 29.92 in 10.0 mi Calm Calm - N/A   Clear
1:15 PM 24.8 °F 16.9 °F 15.8 °F 69% 29.91 in 10.0 mi West 6.9 mph - N/A   Clear
1:35 PM 30.2 °F 18.5 °F 12.2 °F 47% 29.90 in 10.0 mi West 17.3 mph 25.3 mph N/A   Clear
2:15 PM 30.2 °F 20.8 °F 10.4 °F 44% 29.91 in 10.0 mi West 11.5 mph 23.0 mph N/A   Clear
2:35 PM 28.4 °F 21.2 °F 10.4 °F 47% 29.91 in 10.0 mi NNE 6.9 mph 19.6 mph N/A   Clear
2:55 PM 21.2 °F 9.5 °F 12.2 °F 68% 29.93 in 10.0 mi NE 11.5 mph - N/A   Clear
3:16 PM 21.2 °F 10.1 °F 15.8 °F 80% 29.94 in 10.0 mi NE 10.4 mph - N/A   Clear
3:35 PM 19.4 °F 10.4 °F 14.0 °F 80% 29.94 in 10.0 mi NE 6.9 mph - N/A   Clear
4:15 PM 15.8 °F 3.4 °F 12.2 °F 86% 29.95 in 10.0 mi NE 10.4 mph - N/A   Clear
4:55 PM 14.0 °F 6.5 °F 10.4 °F 86% 29.97 in 10.0 mi ENE 4.6 mph - N/A   Clear
5:15 PM 12.2 °F 1.7 °F 10.4 °F 92% 29.97 in 10.0 mi NE 6.9 mph - N/A   Clear
5:35 PM 12.2 °F 2.9 °F 10.4 °F 92% 29.97 in 10.0 mi NE 5.8 mph - N/A   Clear
5:55 PM 12.2 °F 2.9 °F 10.4 °F 92% 29.98 in 10.0 mi NNE 5.8 mph - N/A   Clear
6:35 PM 15.8 °F 10.2 °F 12.2 °F 86% 29.97 in 10.0 mi NW 3.5 mph - N/A   Clear
6:55 PM 15.8 °F 6.1 °F 10.4 °F 79% 29.98 in 10.0 mi NW 6.9 mph - N/A   Clear
7:15 PM 12.2 °F 6.1 °F 8.6 °F 85% 29.98 in 10.0 mi NNW 3.5 mph - N/A   Clear
7:35 PM 8.6 °F - 6.8 °F 92% 29.98 in 10.0 mi Calm Calm - N/A   Clear
7:55 PM 14.0 °F - 10.4 °F 86% 29.98 in 10.0 mi Calm Calm - N/A   Clear
8:15 PM 15.8 °F - 10.4 °F 79% 29.98 in 10.0 mi Calm Calm - N/A   Clear
8:35 PM 24.8 °F 15.3 °F 10.4 °F 54% 29.98 in 10.0 mi West 9.2 mph 16.1 mph N/A   Clear
8:55 PM 21.2 °F 11.7 °F 6.8 °F 54% 29.98 in 10.0 mi WNW 8.1 mph - N/A   Clear
9:15 PM 24.8 °F 12.9 °F 10.4 °F 54% 29.98 in 10.0 mi West 13.8 mph 23.0 mph N/A   Clear
9:35 PM 24.8 °F 13.4 °F 6.8 °F 46% 29.98 in 10.0 mi West 12.7 mph 17.3 mph N/A   Clear
9:55 PM 24.8 °F 14.0 °F 6.8 °F 46% 29.98 in 10.0 mi West 11.5 mph 17.3 mph N/A   Clear
10:15 PM 15.8 °F 10.2 °F -0.4 °F 49% 29.99 in 10.0 mi NW 3.5 mph - N/A   Clear
10:35 PM 19.4 °F - 6.8 °F 58% 30.00 in 10.0 mi Calm Calm - N/A   Clear
10:55 PM 21.2 °F 13.6 °F 6.8 °F 54% 30.01 in 10.0 mi West 5.8 mph - N/A   Clear
11:15 PM 21.2 °F 13.6 °F 6.8 °F 54% 30.01 in 10.0 mi West 5.8 mph - N/A   Clear
11:35 PM 19.4 °F 11.5 °F 3.2 °F 49% 30.01 in 10.0 mi WSW 5.8 mph - N/A   Clear
11:55 PM 21.2 °F 11.7 °F 6.8 °F 54% 30.02 in 10.0 mi West 8.1 mph - N/A   Clear